Real Time Station Status

Last Communication Time: 2021-10-14T21:32:21.965Z

# Data Series Sample Time value Symbol
1 Img Dielectric Perimittivity 2020-09-11T06:10:38+00:00 3.136
2 Real Dielectric Perimittivity 2020-09-11T06:10:38+00:00 7.794
3 Soil Temperature 2020-09-11T06:10:38+00:00 28 °C
4 Soil Moisture 2020-09-11T06:10:38+00:00 0.123 Wfv
5 Soil Conductivity 2020-09-11T06:10:38+00:00 0.009 S/m
6 Air Temperature Inst 2021-10-12T07:20:00+00:00 31.7999992371 °C
7 Relative Humidity Minm 2021-10-12T07:20:00+00:00 81.1999969482 %
8 Relative Humidity Inst 2021-10-12T07:10:00+00:00 82.4000015259 %
9 Wind Speed Avg 2021-10-12T07:10:00+00:00 0.679475367069 m/s
10 Solar Radiation Inst 2021-10-12T07:10:00+00:00 259.399993896 W/m2
11 Pressure Inst 2021-10-12T07:10:00+00:00 999.200012207 hPa
12 Rainfall 2021-10-12T07:20:00+00:00 0.0 mm
13 Wind Direction Inst 2021-10-12T07:20:00+00:00 265.700012207 °
14 Wind Speed Inst 2021-10-12T07:20:00+00:00 0.899999976158 m/s
15 Wind Direction Avg 2021-10-12T07:20:00+00:00 186.374038696 °
16 Relative Humidity 10 min avg 2021-10-12T07:20:00+00:00 82.4899978638 %
17 Air Temperature Minm 2021-10-12T07:20:00+00:00 31.2999992371 °C
18 Air Temperature Avg 2021-10-12T07:20:00+00:00 31.5799980164 °C
19 Relative Humidity Max 2021-10-12T07:20:00+00:00 83.6999969482 %
20 Air Temperature Max 2021-10-12T07:20:00+00:00 31.7999992371 °C
21 Battery Voltage 2021-10-12T07:00:00+00:00 13.9608488083 V
22 Load Current 2021-10-12T07:00:00+00:00 129.029998779 mA
23 Charging Current 2021-10-12T07:00:00+00:00 19.4500007629 mA
24 PV Voltage 2021-10-12T07:00:00+00:00 19.4500007629 V
25 Supply Voltage 2021-10-12T07:00:00+00:00 13.8400001526 V
Observation
Select Data Series
To Date
To Date
Action
# Perameter Record Time Value Unit
Todays Statistics
Total Precipitation
-
Current Temperature
-
Current Relative Humidity
-
Current Wind Speed
-
Todays Rainfall Graph
Todays Temperature Graph
Todays Relative Humidity Graph
Todays Wind Speed Graph